sat.trackr.live / text

‹ back to catalog

STARLINK-5581

NORAD 55373 · 2023-013AU

PAYLOAD ACTIVE UNKNOWN

§ Identity

Operator
Country
US
Launch date
2023-01-26
Launch site
AFETR
Launch vehicle
Mass (kg)
RCS (m²)

Purposes: comms

External: N2YO · Heavens-Above · Gunter

§ Orbital elements

Epoch: 2026-09-20T13:40:37.969824Z

Period
94.27 min
Inclination
43.0059°
Eccentricity
0.0001646
Mean motion
15.27521099 rev/d
Perigee alt
482.1 km
Apogee alt
484.4 km
Semi-major
6,861.4 km
B*
5.6461e-4
RAAN
301.2817°
Arg perigee
271.0706°
Mean anomaly
88.9957°
Rev number
20,126

§ Raw data

STARLINK-55811 55373U 23013AU  26263.56988391  .00015279  00000+0  56461-3 0  99982 55373  43.0059 301.2817 0001646 271.0706  88.9957 15.27521099201266

JSON: /api/v1/satellites/55373 · /tle

For live sub-satellite position, see the globe view (requires WebGL).

§ Visibility from observer

Set your observer location to see the next 7 days of passes ≥ 10°. The values pass through the URL so the page stays shareable.

No JS? Fill the form by hand. The geolocation button needs JavaScript.